{"data":{"norad_id":59758,"intl_designator":"2024-091F","name":"STARLINK-11105 [DTC]","alt_names":[],"object_type":"PAYLOAD","status":"ACTIVE","operator":null,"country":"US","launch_date":"2024-05-14","launch_site_code":"AFWTR","launch_vehicle":null,"mission":null,"orbit_class":"UNKNOWN","rcs_meters":null,"size_class":null,"mass_kg":null,"dimensions":null,"purposes":["comms"],"wikipedia_slug":null,"has_3d_model":false,"image_url":null,"decayed_at":null,"tle_current":{"epoch":"2026-05-24T12:37:21.453600Z","epoch_age_seconds":113460,"freshness":"FRESH","line1":"1 59758U 24091F   26144.52594275 -.00002072  00000+0 -12249-4 0  9990","line2":"2 59758  53.1595 192.4824 0000695  74.4996 285.6099 15.69721965117428","mean_motion":15.69721965,"eccentricity":6.95e-5,"inclination_deg":53.1595,"raan_deg":192.4824,"arg_perigee_deg":74.4996,"mean_anomaly_deg":285.6099,"bstar":-1.2249e-5,"rev_number":11742,"period_min":91.735990965763,"perigee_km":359.22423223618,"apogee_km":360.16079053827,"semimajor_km":6737.8295113872,"source":"CELESTRAK","updated_at":"2026-05-25T13:38:19.056541Z"}}}